Tracking 30995 objects as of 7-Jul-2025
HD Live streaming from Space Station
objects crossing your sky now

ARIANE 44L DEB

Track ARIANE 44L DEB now!


NORAD ID: 28573
Int'l Code: 1991-003N
Perigee: 682.7 km
Apogee: 30,724.6 km
Inclination: 7.4 °
Period: 544.0 minutes
Semi major axis: 22074 km
RCS: 0.274 m2 (medium)
Launch date: January 15, 1991
Source: France (FR)
Launch site: FRENCH GUIANA (FRGUI)

Note: This is SATELLITE DEBRIS
Your satellite tracking list
Your tracking list is empty




NASA's NSSDC Master Catalog

Two Line Element Set (TLE):
1 28573U 91003N   25187.34051750  .00000059  00000-0  14338-2 0  9991
2 28573   7.4274 335.5482 6804624 250.4884  38.1290  2.64705524211745
Source of the keplerian elements: AFSPC